Flag for U.S.A. Weather past 2 weeks in Manhattan, Kansas, U.S.A.

Now
71 °F

Mostly cloudy.


Feels Like: 70 °F
Forecast: 60 / 76 °F
Wind: 10 mph from Southwest

Location: Manhattan Municipal Airport

Current Time: May 29, 2015 at 1:40:40 PM

Latest Report: May 29, 2015 at 12:52 PM


Visibility: 10 mi

Pressure: 29.94 "Hg

Humidity: 84%

Dew point: 66 °F

Location of ManhattanLocation

Historic Weather in Manhattan — Graph

°F

Manhattan temperature yesterday

Maximum temperature yesterday: 78 °F (at 4:52 PM)
Minimum temperature yesterday: 63 °F (at 6:59 AM)
Average temperature yesterday: 71 °F

Past Weeks' High & Low Weather Summary

 TemperatureHumidityPressure
High82 °F (May 17, 4:52 PM)100% (May 15, 1:52 AM)30.34 "Hg (May 15, 1:52 AM)
Low39 °F (May 21, 4:52 AM)35% (May 21, 4:52 PM)29.59 "Hg (May 17, 4:52 AM)
Average63 °F79%29.99 "Hg
* Reported May 14 12:01 PM — May 29 11:52 AM, Manhattan, Weather by CustomWeather, © 2015

Note: Actual official high and low records may vary slightly from our data, if they occured in-between our weather recording intervals... More about our weather records

Advertising

Manhattan weather history for previous 24 hours

 ConditionsComfort  
Time TempWeatherWind HumidityBarometerVisibility
11:52 AM
Fri, May 29
70 °FOvercast.7 mph90%29.95 "Hg10 mi
11:03 AM69 °FMore clouds than sun.3 mph90%29.97 "Hg10 mi
10:52 AM69 °FMostly cloudy.5 mph90%29.95 "Hg10 mi
9:52 AM67 °FOvercast.3 mph93%29.93 "Hg10 mi
8:52 AM66 °FSunny.6 mph93%29.93 "Hg10 mi
7:52 AM65 °FOvercast.3 mph97%29.93 "Hg10 mi
6:52 AM65 °FPassing clouds.No wind97%29.93 "Hg10 mi
5:52 AM64 °FClear.No wind100%29.90 "Hg10 mi
4:52 AM65 °FPassing clouds.5 mph97%29.89 "Hg10 mi
3:52 AM66 °FClear.No wind96%29.85 "Hg10 mi
2:52 AM67 °FLight rain. Passing clouds.8 mph97%29.84 "Hg10 mi
2:04 AM68 °FLight rain. Mostly cloudy.6 mph93%29.93 "Hg9 mi
1:52 AM68 °FLight rain. Overcast.6 mph93%29.92 "Hg10 mi
1:00 AM69 °FLight rain. Mostly cloudy.5 mph90%29.95 "Hg10 mi
11:52 PM
Thu, May 28
69 °FMostly cloudy.6 mph84%29.94 "Hg10 mi
10:52 PM70 °FPartly cloudy.6 mph81%29.92 "Hg10 mi
9:52 PM71 °FMostly cloudy.5 mph78%29.92 "Hg10 mi
8:52 PM71 °FPassing clouds.No wind78%29.91 "Hg10 mi
7:52 PM76 °FSunny.7 mph67%29.90 "Hg10 mi
6:52 PM77 °FSunny.7 mph62%29.88 "Hg10 mi
5:52 PM77 °FPartly sunny.12 mph64%29.89 "Hg10 mi
4:52 PM78 °FSunny.16 mph64%29.89 "Hg10 mi
3:52 PM75 °FCloudy.14 mph71%29.96 "Hg10 mi
2:52 PM75 °FPartly sunny.13 mph74%29.98 "Hg10 mi
1:52 PM72 °FOvercast.9 mph78%30.01 "Hg10 mi
Weather by CustomWeather, © 2015

See weather overviewHow to use our weather pages